contact:dominique.lefevre@mio.osupytheas.fr, maurice.libes@osupytheas.fr, didier.mallarino@osupytheas.fr
Project:EMSO http://www.emso-fr.org/EMSO-France
Depth: 2436.0 m
Title:EMSO Ligure Ouest : Data MII capteur MICROCAT
DateTime_Computer,Latitude,Longitude,Temperature,Conductivity,Pressure,DateTime_Instrument
DateTime_Computer,Latitude,Longitude,degC,S m-1,dbar,DateTime_Instrument
2021-05-18T00:02:26Z,42.805,6.029,13.3000,4.60011,2470.67,2021-5-18T02:03:37Z
2021-05-18T00:05:29Z,42.805,6.029,13.2993,4.60006,2470.646,2021-5-18T02:06:40Z
2021-05-18T00:08:32Z,42.805,6.029,13.2991,4.60007,2470.646,2021-5-18T02:09:43Z
2021-05-18T00:11:35Z,42.805,6.029,13.2995,4.60005,2470.646,2021-5-18T02:12:46Z
2021-05-18T00:14:38Z,42.805,6.029,13.2996,4.60008,2470.646,2021-5-18T02:15:50Z
2021-05-18T00:17:41Z,42.805,6.029,13.2991,4.60006,2470.646,2021-5-18T02:18:53Z
2021-05-18T00:20:45Z,42.805,6.029,13.2993,4.60014,2470.646,2021-5-18T02:21:56Z
2021-05-18T00:23:48Z,42.805,6.029,13.2991,4.60009,2470.624,2021-5-18T02:24:59Z
2021-05-18T00:26:51Z,42.805,6.029,13.2996,4.60011,2470.61,2021-5-18T02:28:02Z
2021-05-18T00:29:54Z,42.805,6.029,13.2993,4.60004,2470.67,2021-5-18T02:31:05Z
2021-05-18T00:32:57Z,42.805,6.029,13.2998,4.60013,2470.637,2021-5-18T02:34:08Z
2021-05-18T00:36:00Z,42.805,6.029,13.2995,4.60005,2470.6,2021-5-18T02:37:11Z
2021-05-18T00:39:03Z,42.805,6.029,13.2992,4.60009,2470.646,2021-5-18T02:40:15Z
2021-05-18T00:42:06Z,42.805,6.029,13.2992,4.60004,2470.646,2021-5-18T02:43:18Z
2021-05-18T00:45:10Z,42.805,6.029,13.2991,4.60006,2470.646,2021-5-18T02:46:21Z
2021-05-18T00:48:13Z,42.805,6.029,13.2994,4.60012,2470.624,2021-5-18T02:49:24Z
2021-05-18T00:51:16Z,42.805,6.029,13.2997,4.60009,2470.637,2021-5-18T02:52:27Z
2021-05-18T00:54:19Z,42.805,6.029,13.2997,4.60007,2470.646,2021-5-18T02:55:30Z
2021-05-18T00:57:22Z,42.805,6.029,13.2995,4.60008,2470.6,2021-5-18T02:58:33Z
2021-05-18T01:00:25Z,42.805,6.029,13.2992,4.60013,2470.661,2021-5-18T03:01:36Z
2021-05-18T01:03:28Z,42.805,6.029,13.2997,4.60006,2470.67,2021-5-18T03:04:40Z
2021-05-18T01:06:31Z,42.805,6.029,13.2993,4.60005,2470.646,2021-5-18T03:07:43Z
2021-05-18T01:09:35Z,42.805,6.029,13.2997,4.60009,2470.637,2021-5-18T03:10:46Z
2021-05-18T01:12:38Z,42.805,6.029,13.2996,4.60009,2470.624,2021-5-18T03:13:49Z
2021-05-18T01:15:41Z,42.805,6.029,13.2997,4.60006,2470.624,2021-5-18T03:16:52Z
2021-05-18T01:18:44Z,42.805,6.029,13.2996,4.60008,2470.646,2021-5-18T03:19:55Z
2021-05-18T01:21:47Z,42.805,6.029,13.2997,4.60010,2470.624,2021-5-18T03:22:58Z
2021-05-18T01:24:50Z,42.805,6.029,13.2997,4.60016,2470.624,2021-5-18T03:26:01Z
2021-05-18T01:27:53Z,42.805,6.029,13.2995,4.60019,2470.646,2021-5-18T03:29:05Z
2021-05-18T01:30:56Z,42.805,6.029,13.2998,4.60005,2470.624,2021-5-18T03:32:08Z
2021-05-18T01:34:00Z,42.805,6.029,13.2998,4.60007,2470.637,2021-5-18T03:35:11Z
2021-05-18T01:37:03Z,42.805,6.029,13.2994,4.60007,2470.624,2021-5-18T03:38:14Z
2021-05-18T01:40:06Z,42.805,6.029,13.2997,4.60014,2470.6,2021-5-18T03:41:17Z
2021-05-18T01:43:09Z,42.805,6.029,13.2997,4.60011,2470.637,2021-5-18T03:44:20Z
2021-05-18T01:46:12Z,42.805,6.029,13.3000,4.60010,2470.6,2021-5-18T03:47:23Z
2021-05-18T01:49:15Z,42.805,6.029,13.2998,4.60004,2470.637,2021-5-18T03:50:26Z
2021-05-18T01:52:18Z,42.805,6.029,13.2997,4.60014,2470.6,2021-5-18T03:53:30Z
2021-05-18T01:55:21Z,42.805,6.029,13.2995,4.60007,2470.661,2021-5-18T03:56:33Z
2021-05-18T01:58:25Z,42.805,6.029,13.2998,4.60016,2470.637,2021-5-18T03:59:36Z
2021-05-18T02:01:28Z,42.805,6.029,13.2996,4.60011,2470.624,2021-5-18T04:02:39Z
2021-05-18T02:04:31Z,42.805,6.029,13.2998,4.60006,2470.646,2021-5-18T04:05:42Z
2021-05-18T02:07:34Z,42.805,6.029,13.2999,4.60010,2470.624,2021-5-18T04:08:45Z
2021-05-18T02:10:37Z,42.805,6.029,13.2999,4.60016,2470.6,2021-5-18T04:11:48Z
2021-05-18T02:13:40Z,42.805,6.029,13.2998,4.60011,2470.646,2021-5-18T04:14:51Z
2021-05-18T02:16:43Z,42.805,6.029,13.3000,4.60021,2470.637,2021-5-18T04:17:54Z
2021-05-18T02:19:46Z,42.805,6.029,13.2997,4.60018,2470.646,2021-5-18T04:20:58Z
2021-05-18T02:22:50Z,42.805,6.029,13.3010,4.60018,2470.577,2021-5-18T04:24:01Z
2021-05-18T02:25:53Z,42.805,6.029,13.2997,4.60011,2470.6,2021-5-18T04:27:04Z
2021-05-18T02:28:56Z,42.805,6.029,13.2994,4.60009,2470.6,2021-5-18T04:30:07Z
2021-05-18T02:31:59Z,42.805,6.029,13.2998,4.60003,2470.637,2021-5-18T04:33:10Z
2021-05-18T02:35:02Z,42.805,6.029,13.2997,4.60008,2470.614,2021-5-18T04:36:13Z
2021-05-18T02:38:05Z,42.805,6.029,13.2997,4.60006,2470.646,2021-5-18T04:39:16Z
2021-05-18T02:41:08Z,42.805,6.029,13.2997,4.60009,2470.6,2021-5-18T04:42:19Z
2021-05-18T02:44:11Z,42.805,6.029,13.2997,4.60009,2470.637,2021-5-18T04:45:23Z
2021-05-18T02:47:14Z,42.805,6.029,13.2998,4.60007,2470.6,2021-5-18T04:48:26Z
2021-05-18T02:50:18Z,42.805,6.029,13.2998,4.60009,2470.591,2021-5-18T04:51:29Z
2021-05-18T02:53:21Z,42.805,6.029,13.2997,4.60007,2470.6,2021-5-18T04:54:32Z
2021-05-18T02:56:24Z,42.805,6.029,13.2993,4.60006,2470.624,2021-5-18T04:57:35Z
2021-05-18T02:59:27Z,42.805,6.029,13.2993,4.60011,2470.591,2021-5-18T05:00:38Z
2021-05-18T03:02:30Z,42.805,6.029,13.3000,4.60010,2470.591,2021-5-18T05:03:41Z
2021-05-18T03:05:33Z,42.805,6.029,13.3000,4.60009,2470.6,2021-5-18T05:06:44Z
2021-05-18T03:08:36Z,42.805,6.029,13.2998,4.60007,2470.637,2021-5-18T05:09:48Z
2021-05-18T03:11:39Z,42.805,6.029,13.3000,4.60014,2470.637,2021-5-18T05:12:51Z
2021-05-18T03:14:43Z,42.805,6.029,13.2996,4.60012,2470.577,2021-5-18T05:15:54Z
2021-05-18T03:17:46Z,42.805,6.029,13.3002,4.60008,2470.661,2021-5-18T05:18:57Z
2021-05-18T03:20:49Z,42.805,6.029,13.2998,4.60008,2470.6,2021-5-18T05:22:00Z
2021-05-18T03:23:52Z,42.805,6.029,13.3004,4.60019,2470.624,2021-5-18T05:25:03Z
2021-05-18T03:26:55Z,42.805,6.029,13.3000,4.60017,2470.6,2021-5-18T05:28:06Z
2021-05-18T03:29:58Z,42.805,6.029,13.2994,4.60014,2470.6,2021-5-18T05:31:09Z
2021-05-18T03:33:01Z,42.805,6.029,13.2998,4.60026,2470.553,2021-5-18T05:34:13Z
2021-05-18T03:36:04Z,42.805,6.029,13.2995,4.60011,2470.61,2021-5-18T05:37:16Z
2021-05-18T03:39:08Z,42.805,6.029,13.3001,4.60012,2470.577,2021-5-18T05:40:19Z
2021-05-18T03:42:11Z,42.805,6.029,13.2998,4.60009,2470.591,2021-5-18T05:43:22Z
2021-05-18T03:45:14Z,42.805,6.029,13.3000,4.60007,2470.6,2021-5-18T05:46:25Z
2021-05-18T03:48:17Z,42.805,6.029,13.2999,4.60009,2470.614,2021-5-18T05:49:28Z
2021-05-18T03:51:20Z,42.805,6.029,13.2997,4.60016,2470.577,2021-5-18T05:52:31Z
2021-05-18T03:54:23Z,42.805,6.029,13.3000,4.60013,2470.563,2021-5-18T05:55:34Z
2021-05-18T03:57:26Z,42.805,6.029,13.2993,4.60014,2470.6,2021-5-18T05:58:38Z
2021-05-18T04:00:29Z,42.805,6.029,13.3009,4.60026,2470.577,2021-5-18T06:01:41Z
2021-05-18T04:03:33Z,42.805,6.029,13.3000,4.60038,2470.614,2021-5-18T06:04:44Z
2021-05-18T04:06:36Z,42.805,6.029,13.2996,4.60012,2470.614,2021-5-18T06:07:47Z
2021-05-18T04:09:39Z,42.805,6.029,13.3002,4.60014,2470.53,2021-5-18T06:10:50Z
2021-05-18T04:12:42Z,42.805,6.029,13.2998,4.60029,2470.577,2021-5-18T06:13:53Z
2021-05-18T04:15:45Z,42.805,6.029,13.2998,4.60009,2470.577,2021-5-18T06:16:56Z
2021-05-18T04:18:48Z,42.805,6.029,13.2996,4.60021,2470.591,2021-5-18T06:19:59Z
2021-05-18T04:21:51Z,42.805,6.029,13.2999,4.60024,2470.577,2021-5-18T06:23:03Z
2021-05-18T04:24:54Z,42.805,6.029,13.2995,4.60008,2470.591,2021-5-18T06:26:06Z
2021-05-18T04:27:58Z,42.805,6.029,13.2997,4.60006,2470.591,2021-5-18T06:29:09Z
2021-05-18T04:31:01Z,42.805,6.029,13.2994,4.60017,2470.553,2021-5-18T06:32:12Z
2021-05-18T04:34:04Z,42.805,6.029,13.3000,4.60016,2470.577,2021-5-18T06:35:15Z
2021-05-18T04:37:07Z,42.805,6.029,13.3000,4.60015,2470.591,2021-5-18T06:38:18Z
2021-05-18T04:40:10Z,42.805,6.029,13.2998,4.60011,2470.563,2021-5-18T06:41:21Z
2021-05-18T04:43:13Z,42.805,6.029,13.2996,4.60009,2470.6,2021-5-18T06:44:24Z
2021-05-18T04:46:16Z,42.805,6.029,13.2997,4.60008,2470.591,2021-5-18T06:47:28Z
2021-05-18T04:49:19Z,42.805,6.029,13.2997,4.60009,2470.591,2021-5-18T06:50:31Z
2021-05-18T04:52:22Z,42.805,6.029,13.2998,4.60008,2470.53,2021-5-18T06:53:34Z
2021-05-18T04:55:26Z,42.805,6.029,13.2996,4.60006,2470.591,2021-5-18T06:56:37Z
2021-05-18T04:58:29Z,42.805,6.029,13.2996,4.60009,2470.577,2021-5-18T06:59:40Z
2021-05-18T05:01:32Z,42.805,6.029,13.2996,4.60021,2470.591,2021-5-18T07:02:43Z
2021-05-18T05:04:35Z,42.805,6.029,13.2996,4.60019,2470.567,2021-5-18T07:05:46Z
2021-05-18T05:07:38Z,42.805,6.029,13.2996,4.60018,2470.577,2021-5-18T07:08:49Z
2021-05-18T05:10:41Z,42.805,6.029,13.2998,4.60016,2470.553,2021-5-18T07:11:53Z
2021-05-18T05:13:44Z,42.805,6.029,13.3002,4.60010,2470.577,2021-5-18T07:14:56Z
2021-05-18T05:16:47Z,42.805,6.029,13.2998,4.60010,2470.577,2021-5-18T07:17:59Z
2021-05-18T05:19:51Z,42.805,6.029,13.2995,4.60019,2470.553,2021-5-18T07:21:02Z
2021-05-18T05:22:54Z,42.805,6.029,13.2991,4.60011,2470.591,2021-5-18T07:24:05Z
2021-05-18T05:25:57Z,42.805,6.029,13.2997,4.60021,2470.567,2021-5-18T07:27:08Z
2021-05-18T05:29:00Z,42.805,6.029,13.3004,4.60013,2470.591,2021-5-18T07:30:11Z
2021-05-18T05:32:03Z,42.805,6.029,13.2991,4.60010,2470.553,2021-5-18T07:33:14Z
2021-05-18T05:35:06Z,42.805,6.029,13.2994,4.60008,2470.553,2021-5-18T07:36:17Z
2021-05-18T05:38:09Z,42.805,6.029,13.2992,4.60010,2470.553,2021-5-18T07:39:21Z
2021-05-18T05:41:12Z,42.805,6.029,13.3000,4.60011,2470.553,2021-5-18T07:42:24Z
2021-05-18T05:44:16Z,42.805,6.029,13.3004,4.60016,2470.567,2021-5-18T07:45:27Z
2021-05-18T05:47:19Z,42.805,6.029,13.3001,4.60016,2470.567,2021-5-18T07:48:30Z
2021-05-18T05:50:22Z,42.805,6.029,13.2997,4.60014,2470.553,2021-5-18T07:51:33Z
2021-05-18T05:53:25Z,42.805,6.029,13.2993,4.60008,2470.553,2021-5-18T07:54:36Z
2021-05-18T05:56:28Z,42.805,6.029,13.2994,4.60009,2470.553,2021-5-18T07:57:39Z
2021-05-18T05:59:31Z,42.805,6.029,13.2996,4.60015,2470.553,2021-5-18T08:00:43Z
2021-05-18T06:02:34Z,42.805,6.029,13.2996,4.60007,2470.553,2021-5-18T08:03:46Z
2021-05-18T06:05:37Z,42.805,6.029,13.3004,4.60012,2470.577,2021-5-18T08:06:49Z
2021-05-18T06:08:41Z,42.805,6.029,13.2999,4.60027,2470.53,2021-5-18T08:09:52Z
2021-05-18T06:11:44Z,42.805,6.029,13.3003,4.60014,2470.567,2021-5-18T08:12:55Z
2021-05-18T06:14:47Z,42.805,6.029,13.2998,4.60027,2470.553,2021-5-18T08:15:58Z
2021-05-18T06:17:50Z,42.805,6.029,13.2993,4.60007,2470.53,2021-5-18T08:19:01Z
2021-05-18T06:20:53Z,42.805,6.029,13.2996,4.60008,2470.544,2021-5-18T08:22:04Z
2021-05-18T06:23:56Z,42.805,6.029,13.2993,4.60006,2470.53,2021-5-18T08:25:07Z
2021-05-18T06:26:59Z,42.805,6.029,13.2998,4.60008,2470.567,2021-5-18T08:28:11Z
2021-05-18T06:30:02Z,42.805,6.029,13.2995,4.60004,2470.577,2021-5-18T08:31:14Z
2021-05-18T06:33:06Z,42.805,6.029,13.2990,4.60009,2470.553,2021-5-18T08:34:17Z
2021-05-18T06:36:09Z,42.805,6.029,13.2996,4.60009,2470.53,2021-5-18T08:37:20Z
2021-05-18T06:39:12Z,42.805,6.029,13.2999,4.60010,2470.567,2021-5-18T08:40:23Z
2021-05-18T06:42:15Z,42.805,6.029,13.2998,4.60011,2470.52,2021-5-18T08:43:26Z
2021-05-18T06:45:18Z,42.805,6.029,13.2995,4.60016,2470.553,2021-5-18T08:46:29Z
2021-05-18T06:48:21Z,42.805,6.029,13.3000,4.60009,2470.53,2021-5-18T08:49:32Z
2021-05-18T06:51:24Z,42.805,6.029,13.3000,4.60010,2470.567,2021-5-18T08:52:36Z
2021-05-18T06:54:27Z,42.805,6.029,13.3000,4.60015,2470.544,2021-5-18T08:55:39Z
2021-05-18T06:57:31Z,42.805,6.029,13.3004,4.60025,2470.53,2021-5-18T08:58:42Z
2021-05-18T07:00:34Z,42.805,6.029,13.2996,4.60017,2470.567,2021-5-18T09:01:45Z
2021-05-18T07:03:37Z,42.805,6.029,13.2994,4.60016,2470.553,2021-5-18T09:04:48Z
2021-05-18T07:06:40Z,42.805,6.029,13.2994,4.60016,2470.53,2021-5-18T09:07:51Z
2021-05-18T07:09:43Z,42.805,6.029,13.3001,4.60014,2470.53,2021-5-18T09:10:54Z
2021-05-18T07:12:46Z,42.805,6.029,13.2996,4.60007,2470.53,2021-5-18T09:13:57Z
2021-05-18T07:15:49Z,42.805,6.029,13.2993,4.60015,2470.53,2021-5-18T09:17:01Z
2021-05-18T07:18:52Z,42.805,6.029,13.2993,4.60005,2470.567,2021-5-18T09:20:04Z
2021-05-18T07:21:56Z,42.805,6.029,13.2997,4.60015,2470.53,2021-5-18T09:23:07Z
2021-05-18T07:24:59Z,42.805,6.029,13.3000,4.60026,2470.553,2021-5-18T09:26:10Z
2021-05-18T07:28:02Z,42.805,6.029,13.2995,4.60013,2470.553,2021-5-18T09:29:13Z
2021-05-18T07:31:05Z,42.805,6.029,13.2996,4.60005,2470.544,2021-5-18T09:32:16Z
2021-05-18T07:34:08Z,42.805,6.029,13.2998,4.60015,2470.567,2021-5-18T09:35:19Z
2021-05-18T07:37:11Z,42.805,6.029,13.2994,4.60008,2470.553,2021-5-18T09:38:22Z
2021-05-18T07:40:14Z,42.805,6.029,13.2998,4.60009,2470.544,2021-5-18T09:41:26Z
2021-05-18T07:43:17Z,42.805,6.029,13.2991,4.60005,2470.544,2021-5-18T09:44:29Z
2021-05-18T07:46:21Z,42.805,6.029,13.2993,4.60017,2470.553,2021-5-18T09:47:32Z
2021-05-18T07:49:24Z,42.805,6.029,13.2999,4.60019,2470.567,2021-5-18T09:50:35Z
2021-05-18T07:52:27Z,42.805,6.029,13.2992,4.60022,2470.52,2021-5-18T09:53:38Z
2021-05-18T07:55:30Z,42.805,6.029,13.3002,4.60009,2470.53,2021-5-18T09:56:41Z
2021-05-18T07:58:33Z,42.805,6.029,13.2996,4.60009,2470.553,2021-5-18T09:59:44Z
2021-05-18T08:01:36Z,42.805,6.029,13.2992,4.60011,2470.53,2021-5-18T10:02:47Z
2021-05-18T08:04:39Z,42.805,6.029,13.2991,4.60014,2470.553,2021-5-18T10:05:51Z
2021-05-18T08:07:42Z,42.805,6.029,13.2998,4.60021,2470.567,2021-5-18T10:08:54Z
2021-05-18T08:10:46Z,42.805,6.029,13.2990,4.60007,2470.553,2021-5-18T10:11:57Z
2021-05-18T08:13:49Z,42.805,6.029,13.2996,4.60011,2470.567,2021-5-18T10:15:00Z
2021-05-18T08:16:52Z,42.805,6.029,13.2994,4.60032,2470.53,2021-5-18T10:18:03Z
2021-05-18T08:19:55Z,42.805,6.029,13.2998,4.60019,2470.53,2021-5-18T10:21:06Z
2021-05-18T08:22:58Z,42.805,6.029,13.2993,4.60014,2470.553,2021-5-18T10:24:09Z
2021-05-18T08:26:01Z,42.805,6.029,13.2999,4.60020,2470.52,2021-5-18T10:27:12Z
2021-05-18T08:29:04Z,42.805,6.029,13.2998,4.60011,2470.544,2021-5-18T10:30:16Z
2021-05-18T08:32:07Z,42.805,6.029,13.2992,4.60021,2470.53,2021-5-18T10:33:19Z
2021-05-18T08:35:11Z,42.805,6.029,13.2992,4.60010,2470.544,2021-5-18T10:36:22Z
2021-05-18T08:38:14Z,42.805,6.029,13.2995,4.60013,2470.544,2021-5-18T10:39:25Z
2021-05-18T08:41:17Z,42.805,6.029,13.2989,4.60008,2470.553,2021-5-18T10:42:28Z
2021-05-18T08:44:20Z,42.805,6.029,13.2997,4.60008,2470.53,2021-5-18T10:45:31Z
2021-05-18T08:47:23Z,42.805,6.029,13.2994,4.60009,2470.53,2021-5-18T10:48:34Z
2021-05-18T08:50:26Z,42.805,6.029,13.2993,4.60009,2470.577,2021-5-18T10:51:37Z
2021-05-18T08:53:29Z,42.805,6.029,13.3002,4.60019,2470.567,2021-5-18T10:54:41Z
2021-05-18T08:56:32Z,42.805,6.029,13.2996,4.60011,2470.53,2021-5-18T10:57:44Z
2021-05-18T08:59:36Z,42.805,6.029,13.2997,4.60009,2470.553,2021-5-18T11:00:47Z
2021-05-18T09:02:39Z,42.805,6.029,13.2995,4.60010,2470.577,2021-5-18T11:03:50Z
2021-05-18T09:05:42Z,42.805,6.029,13.2997,4.60011,2470.553,2021-5-18T11:06:53Z
2021-05-18T09:08:45Z,42.805,6.029,13.2993,4.60009,2470.567,2021-5-18T11:09:56Z
2021-05-18T09:11:48Z,42.805,6.029,13.2995,4.60019,2470.516,2021-5-18T11:12:59Z
2021-05-18T09:14:51Z,42.805,6.029,13.2996,4.60010,2470.53,2021-5-18T11:16:02Z
2021-05-18T09:17:54Z,42.805,6.029,13.3000,4.60009,2470.553,2021-5-18T11:19:06Z
2021-05-18T09:20:57Z,42.805,6.029,13.2993,4.60024,2470.567,2021-5-18T11:22:09Z
2021-05-18T09:24:01Z,42.805,6.029,13.3001,4.60015,2470.544,2021-5-18T11:25:12Z
2021-05-18T09:27:04Z,42.805,6.029,13.2999,4.60016,2470.544,2021-5-18T11:28:15Z
2021-05-18T09:30:07Z,42.805,6.029,13.2998,4.60019,2470.53,2021-5-18T11:31:18Z
2021-05-18T09:33:10Z,42.805,6.029,13.2996,4.60009,2470.53,2021-5-18T11:34:21Z
2021-05-18T09:36:13Z,42.805,6.029,13.2993,4.60014,2470.577,2021-5-18T11:37:24Z
2021-05-18T09:39:16Z,42.805,6.029,13.2991,4.60006,2470.553,2021-5-18T11:40:28Z
2021-05-18T09:42:19Z,42.805,6.029,13.2994,4.60005,2470.591,2021-5-18T11:43:31Z
2021-05-18T09:45:22Z,42.805,6.029,13.3002,4.60016,2470.553,2021-5-18T11:46:34Z
2021-05-18T09:48:26Z,42.805,6.029,13.2993,4.60007,2470.544,2021-5-18T11:49:37Z
2021-05-18T09:51:29Z,42.805,6.029,13.2992,4.60012,2470.567,2021-5-18T11:52:40Z
2021-05-18T09:54:32Z,42.805,6.029,13.2993,4.60007,2470.53,2021-5-18T11:55:43Z
2021-05-18T09:57:35Z,42.805,6.029,13.2995,4.60006,2470.591,2021-5-18T11:58:46Z
2021-05-18T10:00:38Z,42.805,6.029,13.2995,4.60007,2470.553,2021-5-18T12:01:49Z
2021-05-18T10:03:41Z,42.805,6.029,13.2997,4.60006,2470.567,2021-5-18T12:04:53Z
2021-05-18T10:06:44Z,42.805,6.029,13.2994,4.60012,2470.553,2021-5-18T12:07:56Z
2021-05-18T10:09:48Z,42.805,6.029,13.2994,4.60011,2470.553,2021-5-18T12:10:59Z
2021-05-18T10:12:51Z,42.805,6.029,13.2992,4.60006,2470.553,2021-5-18T12:14:02Z
2021-05-18T10:15:54Z,42.805,6.029,13.3003,4.60025,2470.507,2021-5-18T12:17:05Z
2021-05-18T10:18:57Z,42.805,6.029,13.2995,4.60021,2470.553,2021-5-18T12:20:08Z
2021-05-18T10:22:00Z,42.805,6.029,13.2999,4.60014,2470.577,2021-5-18T12:23:11Z
2021-05-18T10:25:03Z,42.805,6.029,13.2998,4.60027,2470.553,2021-5-18T12:26:14Z
2021-05-18T10:28:06Z,42.805,6.029,13.2997,4.60023,2470.577,2021-5-18T12:29:18Z
2021-05-18T10:31:09Z,42.805,6.029,13.2995,4.60006,2470.553,2021-5-18T12:32:21Z
2021-05-18T10:34:13Z,42.805,6.029,13.2993,4.60014,2470.567,2021-5-18T12:35:24Z
2021-05-18T10:37:16Z,42.805,6.029,13.2999,4.60021,2470.553,2021-5-18T12:38:27Z
2021-05-18T10:40:19Z,42.805,6.029,13.2997,4.60011,2470.553,2021-5-18T12:41:30Z
2021-05-18T10:43:22Z,42.805,6.029,13.2999,4.60012,2470.553,2021-5-18T12:44:33Z
2021-05-18T10:46:25Z,42.805,6.029,13.2996,4.60006,2470.53,2021-5-18T12:47:36Z
2021-05-18T10:49:28Z,42.805,6.029,13.2997,4.60033,2470.553,2021-5-18T12:50:39Z
2021-05-18T10:52:31Z,42.805,6.029,13.2997,4.60015,2470.553,2021-5-18T12:53:43Z
2021-05-18T10:55:34Z,42.805,6.029,13.2996,4.60011,2470.577,2021-5-18T12:56:46Z
2021-05-18T10:58:38Z,42.805,6.029,13.2994,4.60006,2470.567,2021-5-18T12:59:49Z
2021-05-18T11:01:41Z,42.805,6.029,13.2996,4.60010,2470.553,2021-5-18T13:02:52Z
2021-05-18T11:04:44Z,42.805,6.029,13.2994,4.60014,2470.553,2021-5-18T13:05:55Z
2021-05-18T11:07:47Z,42.805,6.029,13.2993,4.60009,2470.553,2021-5-18T13:08:58Z
2021-05-18T11:10:50Z,42.805,6.029,13.2994,4.60015,2470.544,2021-5-18T13:12:01Z
2021-05-18T11:13:53Z,42.805,6.029,13.2993,4.60006,2470.553,2021-5-18T13:15:04Z
2021-05-18T11:16:56Z,42.805,6.029,13.2996,4.60022,2470.544,2021-5-18T13:18:08Z
2021-05-18T11:19:59Z,42.805,6.029,13.2999,4.60015,2470.53,2021-5-18T13:21:11Z
2021-05-18T11:23:03Z,42.805,6.029,13.2998,4.60011,2470.53,2021-5-18T13:24:14Z
2021-05-18T11:26:06Z,42.805,6.029,13.2995,4.60022,2470.553,2021-5-18T13:27:17Z
2021-05-18T11:29:09Z,42.805,6.029,13.2998,4.60014,2470.553,2021-5-18T13:30:20Z
2021-05-18T11:32:12Z,42.805,6.029,13.2996,4.60010,2470.53,2021-5-18T13:33:23Z
2021-05-18T11:35:15Z,42.805,6.029,13.2996,4.60008,2470.567,2021-5-18T13:36:26Z
2021-05-18T11:38:18Z,42.805,6.029,13.2996,4.60008,2470.591,2021-5-18T13:39:29Z
2021-05-18T11:41:21Z,42.805,6.029,13.2996,4.60006,2470.553,2021-5-18T13:42:33Z
2021-05-18T11:44:24Z,42.805,6.029,13.2990,4.60014,2470.553,2021-5-18T13:45:36Z
2021-05-18T11:47:28Z,42.805,6.029,13.2998,4.60011,2470.53,2021-5-18T13:48:39Z
2021-05-18T11:50:31Z,42.805,6.029,13.2993,4.60009,2470.567,2021-5-18T13:51:42Z
2021-05-18T11:53:34Z,42.805,6.029,13.2990,4.60007,2470.577,2021-5-18T13:54:45Z
2021-05-18T11:56:37Z,42.805,6.029,13.2993,4.60007,2470.53,2021-5-18T13:57:48Z
2021-05-18T11:59:40Z,42.805,6.029,13.2996,4.60011,2470.577,2021-5-18T14:00:51Z
2021-05-18T12:02:43Z,42.805,6.029,13.2997,4.60012,2470.591,2021-5-18T14:03:55Z
2021-05-18T12:05:46Z,42.805,6.029,13.2996,4.60007,2470.553,2021-5-18T14:06:58Z
2021-05-18T12:08:50Z,42.805,6.029,13.2998,4.60009,2470.553,2021-5-18T14:10:01Z
2021-05-18T12:11:53Z,42.805,6.029,13.3003,4.60026,2470.553,2021-5-18T14:13:04Z
2021-05-18T12:14:56Z,42.805,6.029,13.2988,4.60009,2470.53,2021-5-18T14:16:07Z
2021-05-18T12:17:59Z,42.805,6.029,13.2993,4.60003,2470.553,2021-5-18T14:19:10Z
2021-05-18T12:21:02Z,42.805,6.029,13.2998,4.60028,2470.553,2021-5-18T14:22:13Z
2021-05-18T12:24:05Z,42.805,6.029,13.2994,4.60012,2470.567,2021-5-18T14:25:16Z
2021-05-18T12:27:08Z,42.805,6.029,13.2998,4.60004,2470.567,2021-5-18T14:28:20Z
2021-05-18T12:30:11Z,42.805,6.029,13.2990,4.60014,2470.544,2021-5-18T14:31:23Z
2021-05-18T12:33:15Z,42.805,6.029,13.2992,4.60004,2470.52,2021-5-18T14:34:26Z
2021-05-18T12:36:18Z,42.805,6.029,13.3000,4.60010,2470.553,2021-5-18T14:37:29Z
2021-05-18T12:39:21Z,42.805,6.029,13.2993,4.60014,2470.567,2021-5-18T14:40:32Z
2021-05-18T12:42:24Z,42.805,6.029,13.2989,4.60007,2470.53,2021-5-18T14:43:35Z
2021-05-18T12:45:27Z,42.805,6.029,13.2994,4.60016,2470.53,2021-5-18T14:46:38Z
2021-05-18T12:48:30Z,42.805,6.029,13.2993,4.60011,2470.53,2021-5-18T14:49:41Z
2021-05-18T12:51:33Z,42.805,6.029,13.2999,4.60021,2470.567,2021-5-18T14:52:45Z
2021-05-18T12:54:36Z,42.805,6.029,13.2996,4.60015,2470.544,2021-5-18T14:55:48Z
2021-05-18T12:57:40Z,42.805,6.029,13.2998,4.60012,2470.544,2021-5-18T14:58:51Z
2021-05-18T13:00:43Z,42.805,6.029,13.2991,4.60008,2470.544,2021-5-18T15:01:54Z
2021-05-18T13:03:46Z,42.805,6.029,13.2998,4.60009,2470.507,2021-5-18T15:04:57Z
2021-05-18T13:06:49Z,42.805,6.029,13.2996,4.60005,2470.53,2021-5-18T15:08:00Z
2021-05-18T13:09:52Z,42.805,6.029,13.2998,4.60005,2470.53,2021-5-18T15:11:03Z
2021-05-18T13:12:55Z,42.805,6.029,13.2991,4.60009,2470.544,2021-5-18T15:14:06Z
2021-05-18T13:15:58Z,42.805,6.029,13.2994,4.60003,2470.553,2021-5-18T15:17:10Z
2021-05-18T13:19:01Z,42.805,6.029,13.2995,4.60006,2470.53,2021-5-18T15:20:13Z
2021-05-18T13:22:05Z,42.805,6.029,13.2998,4.60006,2470.53,2021-5-18T15:23:16Z
2021-05-18T13:25:08Z,42.805,6.029,13.2991,4.60006,2470.52,2021-5-18T15:26:19Z
2021-05-18T13:28:11Z,42.805,6.029,13.2995,4.60020,2470.507,2021-5-18T15:29:22Z
2021-05-18T13:31:14Z,42.805,6.029,13.2996,4.60016,2470.52,2021-5-18T15:32:25Z
2021-05-18T13:34:17Z,42.805,6.029,13.2993,4.60011,2470.507,2021-5-18T15:35:28Z
2021-05-18T13:37:20Z,42.805,6.029,13.2991,4.60004,2470.52,2021-5-18T15:38:31Z
2021-05-18T13:40:23Z,42.805,6.029,13.2993,4.60014,2470.553,2021-5-18T15:41:35Z
2021-05-18T13:43:26Z,42.805,6.029,13.2993,4.60017,2470.507,2021-5-18T15:44:38Z
2021-05-18T13:46:30Z,42.805,6.029,13.2995,4.60007,2470.46,2021-5-18T15:47:41Z
2021-05-18T13:49:33Z,42.805,6.029,13.2993,4.60006,2470.507,2021-5-18T15:50:44Z
2021-05-18T13:52:36Z,42.805,6.029,13.2996,4.60014,2470.483,2021-5-18T15:53:47Z
2021-05-18T13:55:39Z,42.805,6.029,13.2993,4.60007,2470.516,2021-5-18T15:56:50Z
2021-05-18T13:58:42Z,42.805,6.029,13.2997,4.60011,2470.507,2021-5-18T15:59:53Z
2021-05-18T14:01:45Z,42.805,6.029,13.2997,4.60013,2470.483,2021-5-18T16:02:56Z
2021-05-18T14:04:48Z,42.805,6.029,13.2990,4.60011,2470.507,2021-5-18T16:06:00Z
2021-05-18T14:07:51Z,42.805,6.029,13.2996,4.60005,2470.497,2021-5-18T16:09:03Z
2021-05-18T14:10:55Z,42.805,6.029,13.2991,4.60007,2470.52,2021-5-18T16:12:06Z
2021-05-18T14:13:58Z,42.805,6.029,13.2996,4.60006,2470.483,2021-5-18T16:15:09Z
2021-05-18T14:17:01Z,42.805,6.029,13.2993,4.60019,2470.483,2021-5-18T16:18:12Z
2021-05-18T14:20:04Z,42.805,6.029,13.2993,4.60006,2470.52,2021-5-18T16:21:15Z
2021-05-18T14:23:07Z,42.805,6.029,13.2994,4.60010,2470.507,2021-5-18T16:24:18Z
2021-05-18T14:26:10Z,42.805,6.029,13.2993,4.60004,2470.497,2021-5-18T16:27:21Z
2021-05-18T14:29:13Z,42.805,6.029,13.2998,4.60011,2470.483,2021-5-18T16:30:25Z
2021-05-18T14:32:17Z,42.805,6.029,13.3000,4.60010,2470.497,2021-5-18T16:33:28Z
2021-05-18T14:35:20Z,42.805,6.029,13.2994,4.60014,2470.507,2021-5-18T16:36:31Z
2021-05-18T14:38:23Z,42.805,6.029,13.2997,4.60009,2470.483,2021-5-18T16:39:34Z
2021-05-18T14:41:26Z,42.805,6.029,13.2993,4.60004,2470.53,2021-5-18T16:42:37Z
2021-05-18T14:44:29Z,42.805,6.029,13.2998,4.60006,2470.483,2021-5-18T16:45:40Z
2021-05-18T14:47:32Z,42.805,6.029,13.2994,4.60003,2470.507,2021-5-18T16:48:43Z
2021-05-18T14:50:35Z,42.805,6.029,13.2990,4.60005,2470.46,2021-5-18T16:51:47Z
2021-05-18T14:53:38Z,42.805,6.029,13.2998,4.60016,2470.497,2021-5-18T16:54:50Z
2021-05-18T14:56:42Z,42.805,6.029,13.2994,4.60016,2470.483,2021-5-18T16:57:53Z
2021-05-18T14:59:45Z,42.805,6.029,13.2996,4.60015,2470.507,2021-5-18T17:00:56Z
2021-05-18T15:02:48Z,42.805,6.029,13.2993,4.60007,2470.46,2021-5-18T17:03:59Z
2021-05-18T15:05:51Z,42.805,6.029,13.2991,4.60003,2470.483,2021-5-18T17:07:02Z
2021-05-18T15:08:54Z,42.805,6.029,13.2995,4.60011,2470.507,2021-5-18T17:10:05Z
2021-05-18T15:11:57Z,42.805,6.029,13.2995,4.60009,2470.483,2021-5-18T17:13:08Z
2021-05-18T15:15:00Z,42.805,6.029,13.2991,4.60002,2470.45,2021-5-18T17:16:12Z